Hourly Data Report for October 03, 2017

All times are specified in Local Standard Time (LST). Add 1 hour to adjust for Daylight Saving Time where and when it is observed.

WESTERN HEAD
NOVA SCOTIA

43°59'24.070" N
64°39'51.008" W
10.10 m
8206240
71411
WWE

Download Data

Hourly Data (October 2017)
Hourly Data Report for October 3, 2017
Temp Definition
°C
Dew Point Temp Definition
°C
Rel Hum Definition
%
Wind Dir Definition
10's deg

Wind Spd Definition
km/h
Visibility Definition
km
Stn Press Definition
kPa
Hmdx Definition


Wind Chill Definition


Weather Definition


TIME
00:00 6.4 3.8 83 34 11   103.25     LegendNANA
01:00 5.2 3.3 87 34 13   103.26     LegendNANA
02:00 4.7 3.1 89 34 13   103.29     LegendNANA
03:00 5.2 3.5 89 34 14   103.30     LegendNANA
04:00 5.8 3.8 88 35 14   103.34     LegendNANA
05:00 5.5 3.8 89 34 14   103.40     LegendNANA
06:00 4.0 2.7 92 33 12   103.47     LegendNANA
07:00 4.4 3.7 96 34 11   103.55     LegendNANA
08:00 7.4 5.3 86 33 12   103.57     LegendNANA
09:00 11.0 5.8 71 35 11   103.60     LegendNANA
10:00 13.2 6.6 64 36 7   103.59     LegendNANA
11:00 14.7 5.3 53 4 5   103.58     LegendNANA
12:00 16.1 7.3 56 10 9   103.52     LegendNANA
13:00 14.8 6.7 58 16 10   103.48     LegendNANA
14:00 15.2 6.6 57 17 7   103.46     LegendNANA
15:00 14.3 7.4 63 19 12   103.41     LegendNANA
16:00 13.7 8.6 71 21 20   103.30     LegendNANA
17:00 13.2 8.4 73 21 24   103.26     LegendNANA
18:00 12.8 8.8 77 22 21   103.20     LegendNANA
19:00 11.3 8.4 82 26 11   103.18     LegendNANA
20:00 9.2 7.2 87 30 10   103.18     LegendNANA
21:00 7.5 5.3 86 26 8   103.18     LegendNANA
22:00 6.2 4.3 88 25 6   103.13     LegendNANA
23:00 5.9 5.1 95 29 10   103.13     LegendNANA

Notes on Data Quality.

Legend

  • E = Estimated
  • M = Missing
  • NA = Not Available
  • ‡ = Partner data that is not subject to review by the National Climate Archives
Date modified: